Dewpoint
-7 -9 -8 -5 2 2 5 7 8 10 10 10 11 11 12 14 14 14 15 15 15 15 15 16 14 15 14 15 14 13 14 13 14 13 13 14 14 15 15 15 15 14 14 14
-6 -8 -9 -8 -2 4 7 7 8 9 10 9 10 11 11 12 14 14 14 15 15 15 16 16 16 15 15 14 14 14 14 14 14 14 13 14 14 15 16 16 15 14 14 14
-7 -10 -9 -6 -4 -2 6 7 9 8 9 10 10 11 11 12 12 13 13 13 13 14 15 15 15 15 14 14 14 14 13 14 14 13 13 14 14 15 16 15 14 14 14 14
-10 -11 -10 -6 -5 -3 1 5 7 8 10 11 10 11 11 11 13 12 12 12 12 12 13 13 14 13 13 13 14 14 13 13 13 13 13 14 14 15 15 12 10 11 13 8
-4 -10 -7 -9 -6 -3 -1 2 5 8 9 10 12 12 9 12 13 12 11 11 11 11 12 12 13 12 11 11 12 13 13 13 12 13 13 13 14 14 15 13 10 10 11 9
-5 -10 -10 -8 -7 -3 -2 1 4 7 7 11 9 11 7 11 12 11 10 11 11 11 11 12 12 11 11 11 12 12 13 13 12 12 13 13 13 14 14 13 9 11 10 10
-4 -6 -9 -10 -6 -2 -2 1 5 7 11 7 5 12 9 6 8 8 8 10 10 11 11 11 12 13 11 11 12 12 12 13 13 12 12 13 13 13 13 11 5 8 7 8
-0 -2 -6 -9 -8 -3 -1 -2 2 7 7 5 6 11 8 7 5 7 8 9 10 10 11 11 11 10 11 11 11 12 12 12 12 10 11 12 12 12 11 7 3 6 5 8
-0 -1 -10 -9 -8 -4 -1 0 -3 0 1 4 4 7 4 5 5 5 6 7 9 10 11 11 12 10 10 11 11 11 12 12 11 9 10 10 10 12 10 2 2 2 4 6
-4 -2 -9 -11 -9 -7 -4 -5 -2 -1 5 4 2 3 -0 4 4 5 5 6 7 9 11 11 12 11 10 10 10 11 12 12 9 5 8 10 8 10 10 10 2 -1 -6 2
-4 -6 -6 -8 -8 -8 -5 -3 -2 -2 0 4 3 1 2 3 3 2 2 3 4 8 10 11 12 11 9 9 10 11 11 12 12 6 4 8 9 11 9 3 5 -2 -3 -2
-4 -3 -2 -7 -9 -9 -11 -6 -4 -0 4 0 0 -0 -2 1 0 2 1 0 5 7 9 11 12 13 11 10 10 10 11 11 11 12 5 5 11 12 8 6 3 -1 -1 2
-5 -3 -0 -1 -4 -7 -6 -7 -7 -6 -5 5 0 -1 2 1 3 2 2 3 4 7 10 11 12 12 10 9 10 10 10 11 12 13 12 9 8 13 11 4 4 2 2 1
-5 -1 -1 -1 -1 -5 -4 -6 -6 -6 -2 -3 -0 -2 -2 -1 4 4 5 3 3 6 10 11 11 9 9 9 9 10 10 13 14 13 14 13 10 12 13 11 4 3 7 10
3 6 3 1 -3 -4 -6 -7 -7 -4 -4 -2 -4 1 -1 0 2 4 1 5 7 8 10 7 5 5 7 8 8 8 10 12 13 14 15 14 13 13 15 14 7 4 9 9
1 3 2 3 0 -3 -4 -6 -7 -6 -7 -4 -6 1 -0 -0 2 3 4 5 8 8 4 3 3 5 5 5 6 9 10 12 13 14 14 14 14 14 15 15 13 10 9 12
6 2 2 1 -1 -3 -2 -4 -5 -5 -5 -3 -1 -1 1 2 3 3 1 4 3 1 1 2 1 3 4 6 7 8 10 11 12 12 13 13 14 15 15 16 14 12 12 12
8 6 3 3 -0 1 -3 -6 -6 -5 -5 -4 -5 -0 2 2 2 4 3 4 2 4 5 3 4 5 5 6 7 9 10 10 11 11 12 13 15 15 16 16 16 14 13 12
8 8 8 6 4 -0 3 5 -2 -5 -2 -1 1 1 4 4 3 5 2 2 0 2 4 5 5 5 5 6 7 8 7 6 8 9 11 12 14 15 16 16 15 13 12 13
9 8 8 8 5 4 3 8 8 8 2 6 7 7 7 5 5 5 3 2 2 2 3 4 5 6 7 7 5 1 2 4 5 7 10 12 14 15 16 16 15 13 11 12
11 13 11 11 8 5 10 9 8 7 5 8 8 7 7 7 8 9 5 7 4 5 5 6 4 2 0 -1 -0 1 2 2 2 4 11 13 13 15 16 16 15 14 14 13
11 12 14 12 11 8 9 8 10 9 9 8 8 8 9 9 10 11 11 11 9 7 4 3 1 0 1 2 4 3 3 5 8 12 12 12 14 15 15 15 15 14 14 14
11 11 14 13 11 9 8 10 9 8 9 9 11 11 11 11 11 11 8 6 5 4 4 3 2 2 3 6 6 6 6 8 8 14 12 12 14 14 15 15 15 14 14 13
11 10 13 12 10 8 7 6 6 5 6 6 7 8 8 9 10 10 8 7 6 4 3 2 -0 0 4 8 9 9 8 12 13 12 11 14 14 15 15 14 14 14 14 12
10 11 11 12 11 9 6 7 7 6 5 4 4 6 9 10 11 9 10 9 8 8 7 5 5 6 9 10 9 10 11 11 8 11 14 14 14 14 13 13 12 11 10 9
8 11 11 12 10 10 7 7 5 5 6 5 4 4 4 2 6 5 7 10 11 10 9 7 7 8 7 10 10 11 11 10 11 13 13 13 13 13 12 10 8 8 8 8
Wind_Speed
5 9 15 17 15 12 15 15 16 9 10 11 14 12 7 17 22 24 25 27 27 29 29 28 29 30 29 29 28 27 26 23 22 19 19 20 19 18 15 16 16 17 17 16
6 15 14 14 13 9 15 15 14 7 12 12 11 14 10 17 27 28 27 28 29 28 26 27 30 30 32 32 31 29 29 28 26 24 21 21 19 18 16 16 16 15 14 15
13 8 10 13 12 12 12 17 14 14 12 4 6 15 15 14 22 24 28 29 28 30 28 28 31 33 34 34 34 32 28 29 28 25 25 24 22 21 18 17 15 14 13 11
10 9 17 13 18 15 17 15 16 16 12 13 12 11 11 16 18 22 29 31 32 30 29 28 30 33 34 35 33 33 29 27 28 29 28 27 23 20 17 14 12 13 12 12
9 11 14 21 20 15 12 12 18 17 18 9 9 7 14 8 16 23 31 35 36 33 32 31 32 34 31 31 34 34 32 29 27 29 29 26 25 22 18 14 13 14 15 16
14 4 14 15 17 18 10 12 6 5 9 9 17 14 13 9 15 22 27 35 36 35 35 33 34 35 37 36 35 35 34 32 29 29 30 28 26 24 21 17 15 15 15 16
12 14 7 11 18 15 14 16 7 8 7 9 12 12 17 11 19 22 20 34 41 39 36 37 35 34 39 39 38 37 37 36 33 32 32 31 29 26 23 19 17 16 15 16
16 14 17 14 18 15 21 20 11 17 10 10 4 11 13 17 29 18 21 20 28 36 40 41 42 44 41 41 39 39 39 39 37 37 37 35 33 30 27 22 19 16 15 14
15 17 4 12 9 18 15 13 17 9 1 7 7 6 10 13 15 18 27 21 27 33 40 45 42 46 43 42 40 40 41 40 39 41 39 37 36 33 29 24 19 16 16 16
10 7 15 17 14 9 16 15 10 8 17 15 8 5 7 6 13 16 15 22 28 33 34 38 44 49 47 42 41 41 42 43 41 41 42 41 39 34 28 23 19 15 18 17
15 12 6 8 18 21 8 9 5 7 9 15 15 13 8 13 13 12 16 23 28 28 34 38 44 46 47 44 44 45 44 44 44 42 45 44 42 37 30 27 18 16 15 14
14 13 14 15 7 9 24 20 18 11 12 6 11 14 5 14 14 12 18 20 16 21 28 31 33 34 39 45 46 46 46 46 46 46 47 46 44 40 31 24 21 17 12 13
9 9 11 15 16 9 8 17 21 19 14 18 15 12 4 6 10 19 22 20 17 15 21 25 28 34 37 38 43 47 48 49 49 50 50 48 48 42 38 38 34 18 6 10
10 6 12 16 20 16 16 12 17 19 15 16 17 18 10 10 12 16 22 23 20 17 20 24 28 32 34 36 37 39 43 41 40 45 48 48 48 46 41 41 38 32 22 33
7 10 16 20 22 23 24 22 21 19 23 19 18 18 17 15 17 20 26 17 17 18 21 28 30 31 33 33 33 34 36 37 38 41 42 46 46 45 45 47 50 48 28 23
7 5 8 15 25 23 27 27 23 23 24 20 22 16 13 17 16 16 22 18 19 23 25 28 30 31 32 32 31 30 30 30 31 34 35 38 41 41 46 52 56 50 43 32
7 5 5 7 17 20 22 25 24 20 21 21 20 14 11 12 15 21 23 26 30 31 28 32 36 36 32 28 26 24 24 22 23 24 27 29 30 34 40 49 55 52 44 37
7 5 2 3 4 9 16 23 25 24 20 18 16 12 11 13 11 14 19 26 36 29 27 31 32 30 28 23 19 15 16 15 15 17 21 23 24 26 32 41 47 50 45 36
7 6 3 3 7 8 5 4 13 22 23 15 16 15 11 7 5 11 14 20 25 28 24 21 18 19 18 14 15 13 10 9 12 14 16 19 20 22 28 35 41 44 44 35
11 8 6 2 5 6 3 2 4 1 14 14 11 11 9 9 7 6 6 9 14 10 12 16 18 17 18 18 15 14 12 9 7 7 8 10 14 20 25 30 36 40 44 36
6 3 2 6 4 6 7 9 2 9 5 4 10 11 14 7 0 5 9 12 15 20 25 25 25 26 23 20 16 14 12 9 8 11 12 10 12 17 19 25 29 32 33 32
7 6 2 3 4 12 16 2 5 3 7 10 13 22 27 23 19 19 19 19 20 23 26 26 25 23 20 17 16 13 8 9 12 15 12 10 13 14 17 20 25 25 29 26
6 4 7 8 5 12 11 1 4 7 11 14 19 20 35 34 26 24 28 28 28 24 23 20 18 14 11 10 6 7 7 7 4 12 10 10 11 13 12 17 19 22 19 22
4 2 5 8 4 7 5 12 14 18 19 16 17 17 22 33 28 23 21 22 21 21 22 20 18 17 13 10 8 5 5 5 7 5 6 11 13 14 14 15 16 17 17 16
3 2 9 4 9 10 4 9 10 18 20 23 24 23 21 27 26 27 20 19 15 13 14 14 13 11 11 9 7 11 14 12 9 6 10 12 13 12 12 15 13 12 12 13
7 3 3 7 18 3 7 13 18 21 19 21 24 25 25 24 24 26 24 17 15 14 11 9 10 8 9 9 12 12 9 6 6 9 9 7 6 9 11 10 9 11 10 12
Wind_Direction
177 196 199 194 196 214 192 207 193 173 171 190 221 252 223 198 207 205 205 205 208 211 213 212 216 219 222 221 218 215 215 210 212 217 221 228 236 243 250 258 265 259 255 259
173 215 203 199 203 199 202 212 204 153 163 198 212 244 242 205 216 210 207 211 213 217 216 218 218 220 224 225 222 222 220 218 218 225 231 238 245 251 257 262 262 255 250 257
208 208 195 200 201 197 212 208 191 196 180 165 195 246 240 220 221 218 220 220 220 220 217 219 221 222 227 228 227 224 222 223 222 225 233 239 246 248 253 258 254 250 245 238
213 205 193 198 212 202 208 214 203 185 176 227 199 260 230 223 214 219 223 220 222 221 222 222 223 226 228 230 229 227 224 224 225 228 235 241 248 245 254 264 259 242 234 230
193 190 192 201 207 201 224 182 196 195 198 209 217 241 258 201 220 221 222 223 222 221 218 220 222 226 225 227 232 228 226 225 222 229 235 240 245 246 249 257 246 233 233 237
211 199 196 200 204 198 148 126 97 150 202 220 220 214 251 211 220 228 223 223 224 220 220 221 223 227 233 235 236 228 226 225 224 228 232 237 243 246 248 253 250 242 239 236
203 218 215 195 199 199 196 172 171 195 200 225 228 217 244 245 234 235 233 221 219 216 218 219 217 218 230 231 234 231 228 226 226 228 230 234 237 240 245 247 244 240 236 234
204 219 209 199 206 189 198 198 202 206 206 215 183 220 236 238 250 252 249 239 226 220 218 221 220 226 227 230 232 232 230 228 226 227 228 231 232 233 238 239 238 241 243 243
200 223 205 205 192 179 181 209 214 222 23 224 197 243 276 250 250 246 243 231 221 218 217 218 218 226 225 228 229 232 230 228 226 226 228 231 233 231 232 232 239 244 245 238
183 208 208 200 195 190 204 180 192 214 219 230 208 234 232 221 245 242 240 226 231 225 217 216 215 223 224 224 227 229 231 229 227 225 227 232 233 233 232 242 239 241 246 242
191 215 161 177 207 200 173 185 210 231 230 231 235 235 213 233 245 247 243 235 237 224 218 213 213 220 224 222 228 230 229 230 229 230 228 229 233 233 226 228 236 248 250 248
202 207 220 216 208 236 222 215 208 215 197 224 250 228 188 231 239 242 252 255 254 229 215 212 211 212 218 224 226 232 233 230 232 232 232 230 233 232 214 238 243 233 235 253
165 211 215 231 240 206 225 226 223 229 243 216 228 225 201 231 242 249 252 261 267 240 211 206 203 213 223 226 227 231 235 235 233 233 235 234 233 231 218 220 217 235 229 283
173 180 216 224 230 233 227 227 217 220 225 225 229 238 211 237 245 258 247 256 253 235 211 206 207 218 225 228 233 234 237 234 233 235 235 235 235 231 223 213 217 207 229 266
207 214 215 227 229 217 223 229 219 218 234 231 229 220 222 225 236 237 244 256 235 218 210 215 218 222 228 230 235 239 239 240 237 238 238 241 240 234 226 218 219 222 240 251
195 224 219 242 231 224 221 221 226 223 227 230 237 223 217 232 238 243 248 236 231 222 220 220 221 225 226 231 234 234 236 237 236 240 244 248 249 241 232 226 223 228 228 242
192 197 177 243 232 218 231 223 220 227 224 211 219 223 215 228 229 230 235 239 239 234 225 218 222 227 229 231 236 238 238 238 243 246 250 256 255 247 239 234 228 226 230 236
170 140 213 290 154 214 236 225 219 214 215 216 242 244 225 238 255 257 246 239 240 234 233 224 224 226 230 233 235 232 232 237 242 247 255 258 257 252 243 236 240 233 227 235
219 134 161 225 245 269 236 172 213 216 234 227 234 234 243 245 219 253 244 239 242 234 235 240 235 227 225 213 202 191 192 209 232 249 257 258 256 249 243 241 239 233 228 241
101 105 143 109 256 252 208 57 353 294 226 187 213 226 211 148 205 214 216 201 210 185 180 182 171 170 165 165 165 170 183 196 211 224 239 237 250 247 247 244 239 235 235 230
184 112 152 124 250 273 1 324 226 184 195 194 197 201 143 151 28 108 126 128 148 154 148 147 142 143 149 158 169 171 164 168 187 205 198 211 212 233 238 240 241 234 236 238
164 158 92 106 204 257 357 269 237 28 74 108 136 128 110 107 101 96 99 101 113 121 129 137 139 143 149 154 153 158 185 212 212 200 176 199 206 217 226 231 236 239 237 244
174 191 135 131 307 324 319 16 74 96 85 81 95 102 111 104 95 95 95 93 93 93 98 103 106 105 113 152 178 227 247 212 226 203 188 180 184 208 212 225 234 246 234 227
57 119 103 119 7 322 5 80 90 86 80 77 73 78 87 96 100 90 88 92 97 101 101 100 99 98 107 134 141 155 157 165 169 188 177 179 191 196 195 201 214 224 230 220
4 261 127 81 109 290 69 93 78 88 85 80 76 72 75 85 88 97 89 89 96 100 107 114 113 107 99 116 114 167 165 169 141 176 189 185 185 189 200 200 207 214 220 216
342 350 157 162 164 225 182 126 105 96 85 82 80 72 69 73 79 77 76 77 86 93 106 118 118 109 98 159 153 162 147 115 126 178 166 169 186 197 196 194 191 188 198 215
Height
1480 1480 1481 1480 1479 1476 1481 1488 1491 1497 1497 1505 1508 1511 1512 1517 1520 1520 1524 1528 1530 1532 1534 1538 1541 1544 1547 1549 1552 1554 1557 1560 1563 1565 1567 1568 1569 1570 1571 1571 1572 1572 1573 1574
1480 1480 1477 1478 1479 1482 1483 1486 1489 1495 1499 1503 1506 1507 1507 1511 1511 1514 1518 1521 1523 1527 1531 1533 1536 1539 1541 1545 1547 1551 1554 1557 1560 1562 1563 1565 1566 1567 1569 1569 1569 1569 1571 1572
1474 1472 1476 1478 1480 1483 1482 1482 1488 1489 1497 1501 1503 1505 1502 1504 1508 1512 1513 1514 1518 1520 1524 1527 1529 1532 1536 1539 1543 1546 1550 1553 1556 1558 1560 1561 1563 1564 1565 1565 1566 1567 1568 1570
1472 1469 1472 1476 1476 1476 1482 1476 1480 1487 1498 1508 1500 1511 1496 1494 1499 1503 1506 1508 1509 1513 1517 1520 1522 1526 1529 1533 1538 1542 1546 1549 1551 1554 1556 1557 1559 1561 1562 1563 1564 1565 1567 1568
1467 1467 1470 1471 1470 1472 1473 1472 1478 1482 1490 1499 1507 1514 1482 1494 1495 1488 1492 1496 1500 1504 1508 1512 1516 1519 1524 1528 1532 1536 1541 1544 1546 1549 1552 1554 1555 1557 1559 1561 1562 1563 1564 1565
1460 1462 1461 1461 1463 1468 1473 1477 1489 1490 1492 1516 1495 1503 1482 1486 1479 1473 1479 1488 1492 1497 1501 1504 1508 1514 1518 1522 1525 1529 1533 1537 1541 1544 1547 1549 1551 1554 1556 1558 1560 1561 1562 1562
1459 1458 1457 1457 1462 1465 1468 1474 1500 1512 1516 1506 1483 1500 1477 1463 1464 1463 1466 1472 1478 1486 1492 1494 1499 1504 1508 1512 1516 1521 1526 1530 1535 1538 1540 1543 1547 1550 1552 1554 1556 1557 1559 1560
1463 1470 1455 1450 1449 1458 1464 1463 1480 1509 1507 1497 1496 1495 1468 1458 1457 1461 1463 1466 1473 1477 1481 1484 1489 1493 1499 1503 1508 1513 1518 1523 1528 1531 1533 1538 1541 1544 1547 1550 1552 1554 1555 1558
1455 1455 1445 1446 1447 1449 1460 1468 1453 1474 1492 1484 1475 1475 1462 1454 1453 1453 1453 1460 1461 1464 1467 1471 1479 1483 1489 1495 1500 1504 1509 1516 1520 1524 1529 1532 1536 1538 1542 1545 1549 1551 1553 1553
1438 1454 1438 1440 1444 1446 1445 1448 1471 1470 1487 1496 1480 1479 1464 1453 1448 1444 1446 1448 1448 1452 1458 1463 1468 1472 1479 1486 1491 1497 1503 1507 1512 1519 1523 1527 1530 1534 1541 1547 1545 1547 1550 1552
1425 1433 1441 1439 1436 1437 1450 1452 1454 1448 1458 1468 1480 1464 1445 1442 1437 1436 1436 1438 1438 1443 1447 1451 1456 1464 1471 1478 1484 1488 1494 1500 1506 1511 1515 1519 1524 1530 1536 1540 1542 1541 1547 1549
1422 1426 1438 1432 1425 1429 1428 1435 1438 1446 1467 1461 1456 1451 1432 1434 1430 1432 1431 1432 1434 1435 1439 1444 1451 1457 1463 1469 1476 1480 1485 1491 1496 1501 1507 1513 1518 1522 1526 1537 1545 1540 1540 1545
1419 1426 1440 1438 1431 1429 1433 1429 1428 1432 1434 1446 1457 1449 1429 1431 1433 1432 1431 1425 1426 1429 1433 1438 1445 1448 1453 1460 1466 1472 1476 1481 1488 1494 1499 1505 1508 1514 1520 1522 1528 1542 1540 1540
1412 1418 1420 1426 1423 1420 1430 1431 1430 1432 1437 1439 1439 1437 1428 1426 1428 1425 1425 1421 1422 1425 1429 1433 1437 1440 1447 1452 1458 1464 1469 1476 1482 1486 1490 1495 1501 1505 1510 1515 1519 1521 1523 1530
1413 1418 1415 1406 1402 1407 1412 1418 1421 1427 1422 1428 1425 1433 1422 1418 1419 1418 1416 1417 1418 1421 1425 1425 1429 1434 1439 1446 1452 1457 1463 1469 1475 1478 1482 1486 1491 1498 1501 1503 1503 1510 1516 1520
1408 1408 1408 1406 1396 1399 1403 1401 1405 1411 1412 1418 1414 1417 1408 1409 1414 1416 1413 1413 1414 1415 1416 1419 1424 1428 1433 1438 1444 1452 1458 1463 1468 1471 1476 1478 1482 1488 1492 1494 1493 1498 1505 1505
1403 1401 1407 1406 1392 1398 1409 1396 1397 1401 1400 1407 1413 1406 1399 1403 1407 1405 1403 1406 1406 1407 1409 1413 1417 1421 1428 1435 1441 1447 1454 1459 1463 1467 1470 1472 1477 1480 1484 1485 1488 1492 1500 1502
1400 1401 1403 1401 1404 1425 1383 1377 1381 1387 1389 1393 1391 1394 1393 1393 1393 1397 1396 1398 1398 1401 1405 1408 1413 1418 1425 1432 1438 1445 1449 1454 1458 1461 1465 1468 1471 1475 1478 1480 1481 1485 1492 1496
1392 1394 1400 1403 1402 1389 1385 1382 1382 1384 1384 1384 1388 1388 1388 1389 1390 1392 1391 1391 1393 1395 1399 1405 1411 1417 1423 1429 1435 1439 1444 1449 1453 1457 1460 1464 1466 1467 1470 1473 1474 1481 1486 1492
1392 1390 1388 1405 1407 1405 1372 1385 1388 1385 1385 1378 1383 1383 1384 1384 1390 1384 1387 1388 1391 1392 1396 1401 1405 1413 1420 1425 1431 1436 1441 1445 1449 1452 1454 1456 1462 1465 1467 1470 1473 1477 1481 1487
1384 1392 1394 1402 1409 1388 1392 1390 1389 1392 1378 1376 1377 1380 1378 1380 1388 1389 1388 1389 1392 1392 1393 1401 1405 1410 1417 1423 1429 1434 1438 1440 1443 1445 1445 1450 1451 1460 1463 1467 1471 1472 1476 1480
1378 1389 1400 1401 1408 1401 1396 1389 1388 1383 1380 1377 1378 1373 1376 1382 1388 1389 1391 1394 1396 1398 1399 1403 1407 1411 1417 1423 1428 1433 1437 1439 1441 1441 1437 1443 1448 1454 1459 1462 1468 1469 1471 1474
1377 1375 1395 1404 1412 1410 1401 1394 1392 1390 1386 1385 1385 1385 1372 1377 1389 1395 1396 1400 1403 1408 1407 1409 1411 1416 1421 1427 1429 1432 1435 1440 1438 1443 1438 1440 1444 1449 1452 1457 1462 1465 1467 1470
1377 1378 1387 1393 1405 1408 1405 1397 1396 1393 1392 1392 1390 1389 1388 1379 1388 1398 1402 1403 1407 1410 1410 1413 1416 1419 1423 1426 1429 1431 1429 1439 1441 1441 1439 1440 1444 1448 1451 1453 1458 1462 1464 1465
1389 1382 1385 1398 1401 1410 1406 1405 1403 1398 1398 1396 1396 1397 1398 1394 1393 1394 1405 1407 1408 1412 1413 1414 1415 1418 1420 1426 1424 1436 1435 1437 1429 1438 1443 1443 1445 1445 1448 1452 1456 1459 1461 1465
1399 1393 1387 1394 1396 1405 1407 1405 1403 1402 1404 1400 1398 1401 1403 1404 1404 1400 1403 1410 1412 1413 1414 1415 1416 1419 1416 1426 1428 1435 1435 1432 1434 1442 1443 1446 1447 1447 1451 1452 1454 1459 1460 1461